Location: ??????
(38.0677°N, 22.9870°E)
Time: 17:22:45
(UTC+00:00)

Cosmos 2237 - Pass Details

Date: 23 May 2024
Orbit: 844 x 857 km, 70.8° (Epoch: 23 June)

Event Time Altitude Azimuth Distance (km) Brightness Sun altitude
Rises 00:14:57 0° 339° (NNW) 3,436 7.9 -25.9°
Reaches altitude 10° 00:17:26 10° 342° (NNW) 2,496 7.2 -25.6°
Maximum altitude 00:23:10 71° 66° (ENE) 904 4.4 -25.0°
Enters shadow 00:25:54 32° 143° (SE) 1,431 5.2 -24.8°
